Coeur d'Alene, ID

12:04 AM PDT on October 17, 2017 (GMT -0700)
Coeur D'Alene

Weather History for KCOE - July, 2013

Change the Weather History Date:

Tuesday, July 16, 2013

  Actual Average Record
Temperature  
Mean Temperature 67 °F -  
Max Temperature 84 °F 81 °F 96 °F (2003)
Min Temperature 50 °F 50 °F 44 °F (2000)
Cooling Degree Days 2    
Growing Degree Days 17 (Base 50)    
Moisture  
Dew Point 48 °F    
Average Humidity 45    
Maximum Humidity 67    
Minimum Humidity 30    
Precipitation  
Precipitation 0.00 in - - ()
Sea Level Pressure  
Sea Level Pressure 29.96 in    
Wind  
Wind Speed 12 mph (NNE)    
Max Wind Speed 23 mph    
Max Gust Speed 28 mph    
Visibility 10 miles    
Events      
Averages and records for this station are not official NWS values.
T = Trace of Precipitation, MM = Missing Value Source: NWS Daily Summary

Daily Weather History Graph

Daily Weather History Graph

Search for Another Location

Airport or City:

Trip Planner

Search our weather history database for the weather conditions in past years. The results will help you decide how hot, cold, wet, or windy it might be!

Date:

Astronomy

Jul. 16, 2013 Rise Set
Actual Time 5:05 AM PDT 8:40 PM PDT
Civil Twilight 4:26 AM PDT 9:19 PM PDT
Nautical Twilight 3:35 AM PDT 10:10 PM PDT
Astronomical Twilight 2:23 AM PDT 11:20 PM PDT
Moon 2:16 PM PDT (7/16) No Moon Set
Length of Visible Light 16h 52m
Length of Day
15h 34m
First Quarter, 57% of the Moon is Illuminated
Jul 16
First Quarter
Jul 22
Full
Jul 29
Last Quarter
Aug 6
New
Aug 14
First Quarter

Hourly Weather History & Observations

Time (PDT) Temp. Heat Index Dew Point Humidity Pressure Visibility Wind Dir Wind Speed Gust Speed Precip Events Conditions
12:15 AM 53.6 °F - 42.8 °F 67% 29.99 in 10.0 mi ENE 3.5 mph - N/A   Clear
12:35 AM 53.6 °F - 41.0 °F 62% 29.99 in 10.0 mi ENE 3.5 mph - N/A   Clear
12:55 AM 53.6 °F - 41.0 °F 62% 30.00 in 10.0 mi Calm Calm - N/A   Clear
1:15 AM 53.6 °F - 41.0 °F 62% 30.01 in 10.0 mi Calm Calm - N/A   Clear
1:35 AM 50.0 °F - 37.4 °F 62% 30.01 in 10.0 mi ENE 4.6 mph - N/A   Clear
1:55 AM 55.4 °F - 42.8 °F 63% 30.00 in 10.0 mi NE 3.5 mph - N/A   Clear
2:15 AM 51.8 °F - 39.2 °F 62% 30.00 in 10.0 mi ENE 5.8 mph - N/A   Clear
2:35 AM 53.6 °F - 42.8 °F 67% 30.01 in 10.0 mi ENE 9.2 mph - N/A   Clear
2:55 AM 55.4 °F - 42.8 °F 63% 30.00 in 10.0 mi NE 8.1 mph - N/A   Clear
3:15 AM 57.2 °F - 41.0 °F 55% 30.00 in 10.0 mi NNE 11.5 mph - N/A   Clear
3:35 AM 55.4 °F - 41.0 °F 58% 30.00 in 10.0 mi NNE 11.5 mph - N/A   Clear
3:55 AM 55.4 °F - 41.0 °F 58% 30.00 in 10.0 mi NE 9.2 mph - N/A   Clear
4:15 AM 53.6 °F - 39.2 °F 58% 30.01 in 10.0 mi NE 8.1 mph - N/A   Clear
4:35 AM 57.2 °F - 42.8 °F 59% 30.00 in 10.0 mi NNE 12.7 mph - N/A   Clear
4:55 AM 57.2 °F - 42.8 °F 59% 30.01 in 10.0 mi NNE 13.8 mph - N/A   Clear
5:15 AM 57.2 °F - 42.8 °F 59% 30.01 in 10.0 mi NE 10.4 mph - N/A   Clear
5:35 AM 57.2 °F - 42.8 °F 59% 30.01 in 10.0 mi NNE 13.8 mph - N/A   Clear
5:55 AM 59.0 °F - 44.6 °F 59% 30.01 in 10.0 mi NNE 13.8 mph - N/A   Clear
6:15 AM 60.8 °F - 44.6 °F 55% 30.02 in 10.0 mi NNE 16.1 mph - N/A   Clear
6:35 AM 60.8 °F - 44.6 °F 55% 30.02 in 10.0 mi NNE 16.1 mph - N/A   Clear
6:55 AM 62.6 °F - 44.6 °F 52% 30.02 in 10.0 mi NNE 18.4 mph - N/A   Clear
7:15 AM 62.6 °F - 44.6 °F 52% 30.02 in 10.0 mi NNE 19.6 mph 23.0 mph N/A   Clear
7:35 AM 64.4 °F - 44.6 °F 49% 30.02 in 10.0 mi NNE 17.3 mph - N/A   Clear
7:55 AM 66.2 °F - 46.4 °F 49% 30.02 in 10.0 mi NNE 19.6 mph - N/A   Clear
8:15 AM 68.0 °F - 46.4 °F 46% 30.02 in 10.0 mi NNE 18.4 mph 24.2 mph N/A   Clear
8:35 AM 69.8 °F - 46.4 °F 43% 30.02 in 10.0 mi NNE 23.0 mph 26.5 mph N/A   Clear
8:55 AM 71.6 °F - 48.2 °F 43% 30.02 in 10.0 mi NNE 20.7 mph - N/A   Clear
9:15 AM 71.6 °F - 48.2 °F 43% 30.01 in 10.0 mi NNE 19.6 mph 27.6 mph N/A   Clear
9:35 AM 73.4 °F - 48.2 °F 41% 30.00 in 10.0 mi NNE 19.6 mph 26.5 mph N/A   Clear
9:55 AM 73.4 °F - 48.2 °F 41% 30.00 in 10.0 mi NNE 21.9 mph 27.6 mph N/A   Clear
10:15 AM 75.2 °F - 48.2 °F 38% 30.00 in 10.0 mi NNE 19.6 mph - N/A   Clear
10:35 AM 75.2 °F - 48.2 °F 38% 29.99 in 10.0 mi North 20.7 mph 26.5 mph N/A   Clear
10:55 AM 77.0 °F - 48.2 °F 36% 29.99 in 10.0 mi NNE 19.6 mph 24.2 mph N/A   Clear
11:15 AM 78.8 °F - 48.2 °F 34% 29.98 in 10.0 mi NE 19.6 mph 26.5 mph N/A   Clear
11:35 AM 78.8 °F - 50.0 °F 36% 29.97 in 10.0 mi NNE 20.7 mph 25.3 mph N/A   Clear
11:55 AM 80.6 °F - 50.0 °F 34% 29.97 in 10.0 mi NNE 19.6 mph - N/A   Clear
12:15 PM 80.6 °F - 50.0 °F 34% 29.96 in 10.0 mi NNE 23.0 mph - N/A   Clear
12:35 PM 82.4 °F - 50.0 °F 32% 29.96 in 10.0 mi NNE 19.6 mph - N/A   Clear
12:55 PM 82.4 °F - 51.8 °F 35% 29.96 in 10.0 mi NNE 18.4 mph - N/A   Clear
1:15 PM 84.2 °F - 51.8 °F 33% 29.95 in 10.0 mi NNE 19.6 mph 24.2 mph N/A   Clear
1:35 PM 84.2 °F - 51.8 °F 33% 29.95 in 10.0 mi NNE 17.3 mph - N/A   Clear
1:55 PM 84.2 °F - 51.8 °F 33% 29.94 in 10.0 mi NNE 19.6 mph 25.3 mph N/A   Clear
2:15 PM 84.2 °F - 50.0 °F 30% 29.93 in 10.0 mi NNE 18.4 mph 24.2 mph N/A   Clear
2:35 PM 82.4 °F - 51.8 °F 35% 29.93 in 10.0 mi NNE 13.8 mph - N/A   Clear
2:55 PM 82.4 °F - 51.8 °F 35% 29.93 in 10.0 mi NNE 15.0 mph 21.9 mph N/A   Clear
3:15 PM 82.4 °F - 51.8 °F 35% 29.93 in 10.0 mi NNE 15.0 mph - N/A   Clear
3:35 PM 82.4 °F 81.4 °F 53.6 °F 37% 29.94 in 10.0 mi NNE 16.1 mph - N/A   Clear
3:55 PM 82.4 °F - 51.8 °F 35% 29.94 in 10.0 mi NNE 17.3 mph - N/A   Clear
4:15 PM 82.4 °F 81.4 °F 53.6 °F 37% 29.93 in 10.0 mi NNE 15.0 mph - N/A   Clear
4:35 PM 80.6 °F 80.3 °F 53.6 °F 39% 29.94 in 10.0 mi NNE 12.7 mph - N/A   Clear
4:55 PM 80.6 °F 80.3 °F 53.6 °F 39% 29.91 in 10.0 mi NNE 15.0 mph - N/A   Clear
5:15 PM 82.4 °F - 51.8 °F 35% 29.89 in 10.0 mi NNE 21.9 mph 25.3 mph N/A   Clear
5:35 PM 82.4 °F 81.4 °F 53.6 °F 37% 29.89 in 10.0 mi NNE 18.4 mph - N/A   Clear
5:55 PM 82.4 °F - 51.8 °F 35% 29.89 in 10.0 mi NNE 17.3 mph - N/A   Clear
6:15 PM 82.4 °F 81.4 °F 53.6 °F 37% 29.88 in 10.0 mi NNE 17.3 mph - N/A   Clear
6:35 PM 82.4 °F 81.4 °F 53.6 °F 37% 29.87 in 10.0 mi NNE 18.4 mph - N/A   Clear
6:55 PM 82.4 °F - 51.8 °F 35% 29.87 in 10.0 mi NNE 15.0 mph 24.2 mph N/A   Clear
7:15 PM 82.4 °F 81.4 °F 53.6 °F 37% 29.87 in 10.0 mi NNE 13.8 mph - N/A   Clear
7:35 PM 80.6 °F 80.3 °F 53.6 °F 39% 29.87 in 10.0 mi NE 12.7 mph - N/A   Clear
7:55 PM 80.6 °F 80.3 °F 53.6 °F 39% 29.88 in 10.0 mi NNE 13.8 mph - N/A   Clear
8:15 PM 78.8 °F - 53.6 °F 42% 29.88 in 10.0 mi NNE 12.7 mph - N/A   Clear
8:35 PM 78.8 °F - 51.8 °F 39% 29.88 in 10.0 mi NNE 13.8 mph - N/A   Clear
8:55 PM 77.0 °F - 51.8 °F 41% 29.89 in 10.0 mi NNE 12.7 mph - N/A   Clear
9:15 PM 75.2 °F - 51.8 °F 44% 29.89 in 10.0 mi NNE 12.7 mph - N/A   Clear
9:35 PM 75.2 °F - 51.8 °F 44% 29.88 in 10.0 mi NNE 16.1 mph - N/A   Clear
9:55 PM 73.4 °F - 50.0 °F 44% 29.89 in 10.0 mi NNE 13.8 mph - N/A   Clear
10:15 PM 73.4 °F - 50.0 °F 44% 29.88 in 10.0 mi NNE 11.5 mph - N/A   Clear
10:35 PM 73.4 °F - 50.0 °F 44% 29.89 in 10.0 mi NNE 13.8 mph - N/A   Clear
10:55 PM 73.4 °F - 48.2 °F 41% 29.89 in 10.0 mi NNE 13.8 mph - N/A   Clear
11:15 PM 73.4 °F - 48.2 °F 41% 29.90 in 10.0 mi North 13.8 mph - N/A   Clear
11:35 PM 73.4 °F - 48.2 °F 41% 29.90 in 10.0 mi NNE 11.5 mph - N/A   Clear
11:55 PM 73.4 °F - 48.2 °F 41% 29.91 in 10.0 mi North 10.4 mph - N/A   Clear